QPF
0.00 0.00 0.00 0.01 0.01 0.01 0.01 0.01 0.01 0.01 0.01 0.01 0.01 0.01 0.01 0.00 0.01 0.01 0.01 0.00 0.01 0.03 0.02 0.01 0.01 0.01 0.01 0.01 0.01 0.01 0.01 0.00 0.00 0.00 0.01 0.01 0.01 0.01 0.01 0.01 0.01 0.01 0.01
0.00 0.00 0.00 0.01 0.01 0.01 0.01 0.01 0.01 0.01 0.01 0.01 0.01 0.01 0.01 0.01 0.01 0.01 0.01 0.01 0.01 0.02 0.02 0.01 0.01 0.01 0.01 0.01 0.01 0.00 0.00 0.00 0.00 0.00 0.00 0.00 0.01 0.02 0.02 0.01 0.01 0.01 0.01
0.00 0.00 0.00 0.01 0.01 0.01 0.02 0.02 0.02 0.02 0.01 0.01 0.01 0.01 0.01 0.01 0.01 0.01 0.01 0.01 0.01 0.01 0.02 0.01 0.01 0.01 0.01 0.00 0.00 0.00 0.00 0.00 0.00 0.00 0.00 0.01 0.02 0.02 0.02 0.01 0.01 0.01 0.01
0.00 0.00 0.00 0.01 0.01 0.01 0.02 0.02 0.02 0.03 0.02 0.02 0.02 0.02 0.01 0.01 0.01 0.01 0.01 0.01 0.01 0.02 0.02 0.01 0.01 0.01 0.00 0.00 0.00 0.00 0.00 0.00 0.00 0.00 0.00 0.00 0.01 0.02 0.01 0.01 0.01 0.01 0.01
0.00 0.00 0.01 0.01 0.01 0.02 0.02 0.02 0.03 0.03 0.03 0.03 0.03 0.02 0.02 0.02 0.02 0.02 0.02 0.02 0.01 0.01 0.01 0.01 0.01 0.01 0.00 0.00 0.00 0.00 0.00 0.00 0.00 0.00 0.00 0.00 0.01 0.02 0.01 0.01 0.01 0.02 0.02
0.00 0.00 0.01 0.01 0.02 0.02 0.02 0.03 0.03 0.03 0.04 0.04 0.04 0.04 0.03 0.03 0.03 0.03 0.02 0.02 0.01 0.01 0.01 0.01 0.01 0.00 0.00 0.00 0.00 0.00 0.00 0.00 0.00 0.00 0.00 0.00 0.00 0.01 0.01 0.01 0.02 0.02 0.02
0.00 0.00 0.01 0.01 0.02 0.03 0.03 0.03 0.04 0.05 0.05 0.06 0.07 0.07 0.06 0.06 0.04 0.03 0.02 0.02 0.01 0.01 0.01 0.01 0.00 0.00 0.00 0.00 0.00 0.00 0.00 0.00 0.00 0.00 0.00 0.00 0.00 0.01 0.01 0.02 0.02 0.02 0.01
0.00 0.01 0.01 0.02 0.03 0.04 0.04 0.05 0.06 0.08 0.09 0.09 0.10 0.10 0.10 0.09 0.08 0.05 0.03 0.02 0.02 0.01 0.01 0.00 0.00 0.00 0.00 0.00 0.00 0.00 0.00 0.00 0.00 0.00 0.00 0.00 0.01 0.01 0.02 0.02 0.02 0.01 0.00
0.01 0.01 0.01 0.02 0.03 0.05 0.06 0.06 0.08 0.11 0.12 0.13 0.12 0.13 0.14 0.13 0.11 0.08 0.05 0.03 0.02 0.01 0.01 0.01 0.00 0.00 0.00 0.00 0.00 0.00 0.00 0.00 0.00 0.00 0.00 0.00 0.01 0.02 0.02 0.01 0.01 0.00 0.00
0.02 0.02 0.02 0.03 0.04 0.05 0.07 0.08 0.10 0.12 0.15 0.17 0.18 0.16 0.17 0.17 0.14 0.12 0.09 0.05 0.04 0.02 0.01 0.01 0.00 0.00 0.00 0.00 0.00 0.00 0.00 0.00 0.00 0.00 0.00 0.00 0.01 0.02 0.01 0.00 0.00 0.00 0.00
0.03 0.03 0.04 0.05 0.06 0.06 0.07 0.10 0.12 0.15 0.17 0.20 0.21 0.20 0.21 0.19 0.15 0.12 0.10 0.08 0.05 0.04 0.02 0.02 0.01 0.00 0.00 0.00 0.00 0.00 0.00 0.00 0.00 0.00 0.00 0.01 0.02 0.02 0.01 0.00 0.00 0.00 0.00
0.03 0.04 0.05 0.06 0.08 0.08 0.10 0.12 0.15 0.17 0.19 0.20 0.20 0.21 0.21 0.20 0.17 0.12 0.10 0.09 0.08 0.05 0.04 0.02 0.01 0.00 0.00 0.00 0.00 0.00 0.00 0.00 0.00 0.00 0.00 0.01 0.02 0.01 0.01 0.00 0.00 0.00 0.00
0.04 0.05 0.07 0.08 0.10 0.10 0.11 0.14 0.16 0.18 0.19 0.20 0.19 0.20 0.20 0.21 0.20 0.16 0.11 0.10 0.10 0.08 0.06 0.04 0.02 0.01 0.00 0.00 0.00 0.00 0.00 0.00 0.00 0.00 0.00 0.01 0.02 0.02 0.01 0.00 0.00 0.00 0.00
0.05 0.05 0.07 0.09 0.10 0.12 0.13 0.14 0.16 0.18 0.18 0.17 0.16 0.19 0.21 0.20 0.19 0.16 0.12 0.09 0.08 0.08 0.07 0.04 0.02 0.01 0.01 0.00 0.00 0.00 0.00 0.00 0.00 0.00 0.00 0.01 0.01 0.02 0.01 0.00 0.00 0.00 0.00
0.05 0.05 0.06 0.09 0.10 0.12 0.14 0.16 0.17 0.18 0.18 0.16 0.15 0.16 0.20 0.21 0.19 0.17 0.13 0.11 0.09 0.08 0.06 0.05 0.02 0.01 0.01 0.01 0.00 0.00 0.00 0.00 0.00 0.00 0.00 0.00 0.01 0.01 0.00 0.00 0.00 0.00 0.00
0.05 0.05 0.05 0.07 0.10 0.11 0.14 0.17 0.17 0.18 0.20 0.19 0.16 0.15 0.18 0.22 0.20 0.19 0.18 0.14 0.12 0.10 0.07 0.05 0.03 0.01 0.01 0.01 0.00 0.00 0.00 0.00 0.00 0.00 0.00 0.00 0.00 0.00 0.00 0.00 0.00 0.01 0.00
0.04 0.04 0.05 0.06 0.10 0.13 0.13 0.16 0.19 0.17 0.20 0.21 0.19 0.18 0.17 0.21 0.23 0.20 0.18 0.16 0.15 0.13 0.11 0.08 0.05 0.02 0.01 0.01 0.00 0.00 0.00 0.00 0.00 0.00 0.00 0.00 0.00 0.00 0.00 0.00 0.00 0.01 0.00
0.05 0.05 0.05 0.07 0.09 0.12 0.14 0.15 0.20 0.21 0.20 0.23 0.24 0.23 0.20 0.20 0.23 0.24 0.20 0.16 0.14 0.16 0.17 0.15 0.11 0.06 0.02 0.00 0.00 0.00 0.00 0.00 0.00 0.00 0.00 0.00 0.00 0.00 0.00 0.00 0.00 0.00 0.00
0.04 0.05 0.05 0.08 0.09 0.12 0.14 0.15 0.17 0.24 0.24 0.23 0.27 0.28 0.25 0.22 0.23 0.26 0.24 0.21 0.17 0.17 0.17 0.16 0.14 0.09 0.04 0.01 0.00 0.00 0.00 0.00 0.00 0.00 0.00 0.00 0.00 0.00 0.00 0.00 0.00 0.00 0.00
0.05 0.05 0.06 0.08 0.08 0.12 0.15 0.19 0.19 0.22 0.27 0.26 0.28 0.27 0.27 0.26 0.24 0.24 0.25 0.24 0.20 0.17 0.15 0.16 0.15 0.11 0.07 0.03 0.01 0.01 0.00 0.00 0.00 0.00 0.00 0.00 0.00 0.00 0.00 0.00 0.00 0.00 0.00
0.06 0.06 0.06 0.08 0.09 0.11 0.14 0.17 0.21 0.22 0.24 0.28 0.29 0.28 0.25 0.25 0.26 0.26 0.25 0.25 0.23 0.19 0.14 0.13 0.15 0.14 0.10 0.06 0.04 0.02 0.01 0.00 0.00 0.00 0.00 0.00 0.00 0.00 0.00 0.00 0.00 0.00 0.00
0.06 0.06 0.07 0.07 0.09 0.13 0.13 0.13 0.17 0.23 0.26 0.29 0.30 0.31 0.26 0.24 0.25 0.27 0.25 0.23 0.22 0.21 0.17 0.11 0.11 0.12 0.10 0.06 0.04 0.03 0.02 0.01 0.00 0.00 0.00 0.00 0.00 0.00 0.00 0.00 0.00 0.00 0.00
0.08 0.08 0.07 0.07 0.09 0.13 0.16 0.18 0.18 0.27 0.34 0.35 0.36 0.35 0.27 0.23 0.24 0.25 0.25 0.22 0.21 0.21 0.19 0.15 0.10 0.09 0.08 0.05 0.03 0.02 0.01 0.01 0.00 0.00 0.00 0.00 0.00 0.00 0.00 0.00 0.00 0.00 0.00
0.08 0.08 0.08 0.07 0.11 0.14 0.16 0.22 0.20 0.25 0.33 0.34 0.33 0.37 0.30 0.23 0.24 0.26 0.25 0.22 0.20 0.19 0.18 0.15 0.13 0.10 0.07 0.05 0.02 0.01 0.00 0.00 0.00 0.00 0.00 0.00 0.00 0.00 0.00 0.00 0.00 0.00 0.00
0.07 0.08 0.09 0.08 0.11 0.16 0.17 0.21 0.23 0.21 0.26 0.31 0.35 0.36 0.34 0.27 0.23 0.26 0.27 0.25 0.22 0.19 0.17 0.15 0.12 0.11 0.08 0.05 0.03 0.01 0.01 0.00 0.00 0.00 0.00 0.00 0.00 0.00 0.00 0.00 0.00 0.00 0.00
0.06 0.08 0.10 0.10 0.10 0.15 0.16 0.17 0.23 0.23 0.23 0.29 0.35 0.39 0.37 0.33 0.26 0.24 0.26 0.26 0.24 0.22 0.19 0.16 0.12 0.10 0.07 0.05 0.03 0.02 0.02 0.01 0.01 0.00 0.00 0.00 0.00 0.00 0.00 0.00 0.00 0.00 0.00
MSLP
1009.38 1008.57 1007.76 1007.08 1006.60 1006.33 1006.25 1006.30 1006.41 1006.52 1006.59 1006.63 1006.67 1006.75 1006.90 1007.16 1007.50 1007.89 1008.29 1008.66 1008.97 1009.23 1009.47 1009.71 1009.99 1010.32 1010.71 1011.12 1011.52 1011.88 1012.18 1012.40 1012.57 1012.71 1012.84 1013.01 1013.19 1013.38 1013.55 1013.68 1013.73 1013.70 1013.61
1010.08 1009.25 1008.38 1007.61 1007.02 1006.65 1006.47 1006.45 1006.52 1006.61 1006.70 1006.77 1006.84 1006.96 1007.15 1007.41 1007.75 1008.14 1008.52 1008.87 1009.17 1009.41 1009.63 1009.85 1010.11 1010.42 1010.79 1011.18 1011.58 1011.94 1012.25 1012.50 1012.69 1012.86 1013.02 1013.18 1013.36 1013.54 1013.70 1013.80 1013.85 1013.83 1013.76
1010.53 1009.70 1008.81 1007.99 1007.34 1006.90 1006.68 1006.62 1006.67 1006.76 1006.86 1006.94 1007.03 1007.15 1007.34 1007.59 1007.90 1008.26 1008.62 1008.95 1009.23 1009.48 1009.70 1009.92 1010.18 1010.48 1010.84 1011.23 1011.63 1012.00 1012.33 1012.60 1012.83 1013.01 1013.17 1013.33 1013.48 1013.63 1013.76 1013.85 1013.90 1013.90 1013.87
1010.77 1009.95 1009.06 1008.24 1007.59 1007.14 1006.90 1006.83 1006.87 1006.95 1007.04 1007.11 1007.18 1007.27 1007.42 1007.62 1007.89 1008.21 1008.54 1008.86 1009.15 1009.41 1009.66 1009.91 1010.19 1010.51 1010.88 1011.28 1011.70 1012.09 1012.45 1012.75 1012.99 1013.19 1013.34 1013.47 1013.58 1013.68 1013.77 1013.84 1013.89 1013.92 1013.94
1010.81 1010.02 1009.18 1008.41 1007.80 1007.39 1007.16 1007.09 1007.11 1007.17 1007.21 1007.24 1007.26 1007.29 1007.36 1007.50 1007.71 1007.98 1008.29 1008.62 1008.94 1009.24 1009.54 1009.85 1010.18 1010.54 1010.94 1011.37 1011.81 1012.23 1012.62 1012.94 1013.20 1013.39 1013.53 1013.62 1013.69 1013.73 1013.77 1013.81 1013.87 1013.93 1014.01
1010.73 1009.99 1009.23 1008.55 1008.01 1007.65 1007.45 1007.38 1007.37 1007.37 1007.36 1007.31 1007.24 1007.19 1007.18 1007.24 1007.39 1007.62 1007.93 1008.27 1008.64 1009.01 1009.38 1009.77 1010.16 1010.59 1011.03 1011.50 1011.96 1012.41 1012.81 1013.16 1013.43 1013.62 1013.74 1013.80 1013.81 1013.80 1013.80 1013.82 1013.87 1013.97 1014.10
1010.56 1009.90 1009.25 1008.68 1008.23 1007.93 1007.75 1007.66 1007.61 1007.54 1007.44 1007.30 1007.15 1007.00 1006.91 1006.91 1007.01 1007.21 1007.52 1007.89 1008.32 1008.76 1009.23 1009.69 1010.17 1010.65 1011.14 1011.63 1012.12 1012.58 1013.00 1013.36 1013.64 1013.83 1013.94 1013.97 1013.96 1013.92 1013.88 1013.88 1013.94 1014.06 1014.23
1010.34 1009.78 1009.25 1008.80 1008.45 1008.19 1008.03 1007.90 1007.78 1007.64 1007.45 1007.23 1006.99 1006.78 1006.62 1006.57 1006.63 1006.82 1007.14 1007.54 1008.02 1008.55 1009.09 1009.64 1010.18 1010.71 1011.24 1011.74 1012.24 1012.70 1013.12 1013.48 1013.77 1013.97 1014.09 1014.13 1014.11 1014.06 1014.02 1014.02 1014.08 1014.21 1014.42
1010.10 1009.65 1009.24 1008.90 1008.62 1008.40 1008.22 1008.05 1007.86 1007.64 1007.38 1007.09 1006.80 1006.54 1006.36 1006.27 1006.32 1006.51 1006.83 1007.26 1007.79 1008.37 1008.98 1009.59 1010.19 1010.76 1011.30 1011.81 1012.28 1012.73 1013.13 1013.49 1013.79 1014.01 1014.15 1014.22 1014.23 1014.21 1014.19 1014.20 1014.28 1014.43 1014.64
1009.88 1009.52 1009.22 1008.97 1008.74 1008.53 1008.32 1008.09 1007.83 1007.54 1007.22 1006.89 1006.58 1006.32 1006.13 1006.04 1006.08 1006.26 1006.59 1007.03 1007.59 1008.21 1008.87 1009.53 1010.17 1010.77 1011.31 1011.80 1012.25 1012.66 1013.03 1013.37 1013.67 1013.92 1014.10 1014.23 1014.30 1014.33 1014.36 1014.41 1014.50 1014.66 1014.88
1009.70 1009.43 1009.20 1009.00 1008.79 1008.55 1008.29 1007.99 1007.67 1007.33 1006.98 1006.65 1006.35 1006.11 1005.93 1005.85 1005.89 1006.06 1006.37 1006.82 1007.38 1008.02 1008.72 1009.43 1010.10 1010.72 1011.27 1011.75 1012.16 1012.53 1012.86 1013.17 1013.45 1013.72 1013.95 1014.14 1014.29 1014.40 1014.50 1014.59 1014.72 1014.89 1015.10
1009.59 1009.38 1009.19 1009.00 1008.76 1008.48 1008.15 1007.79 1007.41 1007.03 1006.68 1006.37 1006.10 1005.88 1005.73 1005.66 1005.69 1005.84 1006.12 1006.55 1007.10 1007.77 1008.50 1009.25 1009.98 1010.64 1011.21 1011.68 1012.06 1012.38 1012.66 1012.93 1013.20 1013.47 1013.74 1013.99 1014.21 1014.41 1014.58 1014.74 1014.90 1015.08 1015.29
1009.57 1009.38 1009.19 1008.97 1008.68 1008.33 1007.93 1007.50 1007.07 1006.68 1006.33 1006.04 1005.81 1005.62 1005.49 1005.41 1005.42 1005.53 1005.77 1006.17 1006.72 1007.40 1008.17 1008.99 1009.79 1010.52 1011.14 1011.64 1012.01 1012.30 1012.54 1012.76 1012.99 1013.24 1013.53 1013.82 1014.11 1014.38 1014.62 1014.84 1015.03 1015.23 1015.42
1009.64 1009.43 1009.20 1008.91 1008.55 1008.12 1007.64 1007.15 1006.69 1006.28 1005.94 1005.67 1005.46 1005.30 1005.16 1005.07 1005.03 1005.09 1005.28 1005.64 1006.18 1006.90 1007.74 1008.65 1009.56 1010.40 1011.10 1011.66 1012.06 1012.34 1012.54 1012.71 1012.89 1013.12 1013.39 1013.70 1014.02 1014.34 1014.64 1014.90 1015.12 1015.33 1015.51
1009.74 1009.47 1009.17 1008.80 1008.35 1007.84 1007.30 1006.76 1006.27 1005.85 1005.52 1005.27 1005.07 1004.89 1004.74 1004.60 1004.51 1004.50 1004.65 1004.98 1005.52 1006.28 1007.21 1008.24 1009.29 1010.27 1011.10 1011.76 1012.22 1012.52 1012.71 1012.84 1012.97 1013.14 1013.38 1013.67 1014.00 1014.34 1014.66 1014.95 1015.19 1015.39 1015.57
1009.78 1009.43 1009.04 1008.58 1008.06 1007.48 1006.89 1006.32 1005.81 1005.39 1005.06 1004.81 1004.60 1004.41 1004.21 1004.02 1003.87 1003.80 1003.90 1004.21 1004.77 1005.58 1006.61 1007.77 1008.98 1010.12 1011.12 1011.90 1012.46 1012.82 1013.01 1013.12 1013.21 1013.33 1013.51 1013.76 1014.07 1014.40 1014.72 1015.01 1015.25 1015.45 1015.61
1009.66 1009.22 1008.73 1008.20 1007.61 1006.99 1006.37 1005.79 1005.28 1004.87 1004.54 1004.28 1004.05 1003.83 1003.59 1003.36 1003.15 1003.04 1003.10 1003.41 1003.99 1004.86 1005.98 1007.27 1008.63 1009.94 1011.09 1012.03 1012.70 1013.14 1013.38 1013.50 1013.56 1013.64 1013.77 1013.97 1014.23 1014.52 1014.82 1015.09 1015.32 1015.50 1015.64
1009.30 1008.75 1008.18 1007.57 1006.94 1006.30 1005.68 1005.12 1004.63 1004.23 1003.91 1003.65 1003.41 1003.17 1002.91 1002.64 1002.41 1002.27 1002.32 1002.63 1003.24 1004.15 1005.35 1006.74 1008.22 1009.67 1010.97 1012.05 1012.85 1013.39 1013.71 1013.86 1013.93 1013.99 1014.08 1014.24 1014.45 1014.70 1014.96 1015.20 1015.40 1015.55 1015.67
1008.64 1007.99 1007.34 1006.68 1006.02 1005.38 1004.77 1004.24 1003.78 1003.41 1003.11 1002.87 1002.64 1002.40 1002.15 1001.89 1001.67 1001.54 1001.61 1001.93 1002.55 1003.50 1004.73 1006.18 1007.73 1009.28 1010.69 1011.89 1012.82 1013.47 1013.89 1014.11 1014.23 1014.30 1014.38 1014.51 1014.69 1014.90 1015.11 1015.31 1015.47 1015.59 1015.67
1007.68 1006.95 1006.22 1005.51 1004.83 1004.19 1003.61 1003.11 1002.69 1002.37 1002.11 1001.91 1001.72 1001.53 1001.32 1001.11 1000.94 1000.86 1000.97 1001.31 1001.95 1002.90 1004.13 1005.58 1007.16 1008.74 1010.23 1011.51 1012.55 1013.32 1013.84 1014.17 1014.36 1014.49 1014.60 1014.73 1014.89 1015.07 1015.25 1015.41 1015.53 1015.61 1015.65
1006.50 1005.67 1004.87 1004.10 1003.39 1002.75 1002.19 1001.72 1001.35 1001.08 1000.88 1000.74 1000.63 1000.52 1000.40 1000.29 1000.21 1000.22 1000.39 1000.77 1001.42 1002.35 1003.54 1004.95 1006.50 1008.07 1009.57 1010.91 1012.03 1012.91 1013.56 1014.01 1014.31 1014.52 1014.69 1014.85 1015.01 1015.17 1015.33 1015.45 1015.54 1015.58 1015.59
1005.20 1004.27 1003.38 1002.54 1001.78 1001.11 1000.55 1000.10 999.78 999.56 999.43 999.38 999.37 999.37 999.39 999.41 999.46 999.58 999.83 1000.26 1000.91 1001.81 1002.96 1004.29 1005.77 1007.29 1008.77 1010.14 1011.32 1012.30 1013.06 1013.64 1014.06 1014.38 1014.63 1014.84 1015.03 1015.19 1015.33 1015.44 1015.50 1015.52 1015.49
1003.89 1002.85 1001.84 1000.90 1000.06 999.34 998.76 998.32 998.03 997.87 997.83 997.88 997.98 998.13 998.28 998.46 998.65 998.90 999.25 999.73 1000.40 1001.27 1002.35 1003.61 1005.00 1006.46 1007.90 1009.27 1010.50 1011.56 1012.43 1013.13 1013.68 1014.10 1014.43 1014.71 1014.93 1015.12 1015.26 1015.36 1015.41 1015.41 1015.37
1002.65 1001.48 1000.34 999.28 998.33 997.54 996.92 996.48 996.22 996.11 996.16 996.31 996.54 996.82 997.13 997.45 997.79 998.16 998.60 999.15 999.85 1000.70 1001.74 1002.93 1004.25 1005.64 1007.05 1008.41 1009.67 1010.79 1011.75 1012.55 1013.20 1013.72 1014.13 1014.47 1014.73 1014.94 1015.10 1015.21 1015.27 1015.27 1015.25
1001.50 1000.19 998.90 997.71 996.65 995.78 995.11 994.67 994.43 994.40 994.52 994.79 995.14 995.55 995.98 996.43 996.89 997.37 997.90 998.51 999.24 1000.10 1001.11 1002.27 1003.55 1004.91 1006.29 1007.65 1008.93 1010.10 1011.12 1011.98 1012.71 1013.29 1013.76 1014.14 1014.45 1014.69 1014.87 1015.01 1015.09 1015.12 1015.12
1000.40 998.95 997.53 996.20 995.04 994.10 993.40 992.96 992.78 992.81 993.04 993.40 993.86 994.37 994.91 995.45 996.00 996.56 997.16 997.82 998.59 999.48 1000.51 1001.67 1002.94 1004.29 1005.68 1007.04 1008.33 1009.52 1010.56 1011.46 1012.22 1012.84 1013.34 1013.75 1014.09 1014.36 1014.58 1014.76 1014.89 1014.97 1015.02
Thickness
5778 5782 5783 5782 5781 5781 5782 5782 5781 5780 5779 5778 5777 5777 5776 5775 5774 5772 5771 5769 5768 5766 5764 5762 5761 5759 5757 5755 5753 5751 5749 5748 5746 5744 5742 5741 5739 5737 5735 5733 5731 5730 5728
5778 5779 5778 5778 5777 5777 5777 5778 5777 5776 5775 5774 5773 5772 5772 5771 5770 5768 5767 5766 5764 5762 5761 5759 5757 5755 5753 5752 5749 5748 5746 5744 5742 5740 5739 5737 5736 5734 5732 5729 5728 5726 5724
5772 5773 5773 5773 5773 5773 5773 5773 5772 5771 5771 5770 5769 5768 5767 5766 5766 5765 5763 5762 5760 5758 5757 5755 5754 5751 5750 5748 5746 5744 5742 5740 5738 5736 5735 5733 5732 5730 5728 5726 5724 5723 5721
5765 5765 5766 5766 5767 5767 5768 5768 5768 5767 5766 5765 5765 5764 5763 5762 5761 5760 5759 5758 5756 5754 5753 5751 5749 5747 5746 5744 5743 5741 5739 5736 5734 5732 5731 5729 5728 5727 5724 5722 5721 5719 5717
5757 5758 5759 5760 5760 5761 5762 5762 5763 5763 5762 5761 5760 5759 5759 5758 5757 5756 5755 5753 5752 5750 5748 5747 5745 5743 5742 5740 5739 5737 5735 5732 5730 5728 5727 5726 5724 5723 5720 5718 5716 5715 5713
5748 5750 5752 5753 5754 5755 5755 5756 5756 5757 5757 5756 5755 5755 5754 5754 5753 5751 5750 5749 5747 5745 5744 5742 5740 5739 5737 5736 5735 5733 5731 5728 5726 5724 5723 5721 5720 5718 5716 5714 5712 5710 5708
5738 5741 5743 5745 5746 5748 5749 5750 5750 5751 5751 5751 5751 5750 5749 5749 5748 5747 5745 5744 5743 5741 5739 5737 5736 5734 5733 5732 5731 5729 5727 5724 5722 5720 5718 5717 5716 5714 5712 5710 5707 5705 5703
5729 5732 5734 5736 5738 5740 5742 5743 5744 5744 5745 5745 5746 5745 5744 5744 5743 5742 5740 5739 5738 5736 5734 5733 5731 5730 5729 5728 5726 5725 5722 5720 5717 5716 5714 5713 5712 5710 5708 5705 5703 5700 5698
5718 5721 5724 5727 5729 5731 5733 5735 5736 5737 5738 5739 5739 5739 5739 5738 5737 5737 5735 5734 5733 5731 5729 5728 5726 5725 5724 5723 5722 5720 5718 5716 5713 5711 5710 5708 5707 5705 5703 5700 5698 5695 5693
5705 5709 5712 5716 5719 5722 5723 5726 5728 5729 5730 5731 5732 5733 5733 5732 5732 5731 5730 5729 5728 5726 5724 5723 5721 5720 5719 5718 5716 5715 5713 5711 5709 5707 5706 5704 5702 5700 5698 5695 5693 5690 5687
5691 5695 5699 5703 5707 5711 5714 5717 5719 5720 5722 5723 5724 5725 5725 5725 5725 5725 5724 5724 5723 5721 5719 5718 5717 5715 5714 5713 5711 5710 5708 5706 5704 5702 5701 5700 5698 5696 5693 5690 5688 5685 5682
5675 5681 5686 5691 5695 5699 5703 5706 5708 5711 5713 5714 5716 5717 5717 5718 5719 5719 5718 5718 5717 5716 5714 5713 5711 5710 5708 5707 5705 5704 5702 5700 5699 5697 5696 5695 5693 5691 5688 5685 5682 5680 5677
5662 5667 5672 5677 5682 5686 5690 5693 5697 5700 5703 5705 5707 5709 5710 5710 5711 5711 5711 5711 5711 5709 5708 5707 5706 5704 5703 5701 5700 5699 5697 5695 5694 5692 5691 5690 5688 5686 5683 5680 5677 5674 5672
5646 5652 5659 5663 5667 5672 5677 5681 5685 5689 5692 5695 5698 5700 5702 5703 5704 5705 5705 5706 5705 5704 5703 5702 5700 5698 5697 5696 5695 5693 5692 5690 5688 5687 5686 5684 5683 5681 5678 5675 5672 5669 5666
5629 5636 5642 5647 5652 5657 5662 5667 5673 5677 5681 5685 5688 5691 5694 5695 5697 5698 5698 5699 5700 5699 5698 5696 5694 5693 5691 5690 5689 5688 5687 5685 5683 5682 5681 5679 5677 5675 5672 5670 5667 5664 5661
5613 5620 5626 5631 5637 5642 5647 5653 5659 5664 5669 5673 5678 5682 5685 5688 5690 5691 5692 5693 5694 5693 5692 5691 5690 5688 5686 5684 5683 5682 5682 5680 5678 5677 5675 5673 5671 5669 5667 5665 5662 5659 5655
5597 5604 5610 5615 5621 5626 5632 5638 5645 5651 5657 5662 5667 5672 5676 5679 5681 5684 5685 5686 5688 5687 5686 5685 5683 5682 5680 5678 5677 5676 5676 5674 5672 5671 5669 5668 5666 5664 5661 5659 5657 5654 5650
5581 5588 5595 5600 5605 5610 5616 5623 5630 5637 5644 5650 5656 5662 5666 5670 5674 5676 5677 5679 5682 5681 5680 5679 5678 5676 5674 5672 5671 5670 5669 5668 5667 5665 5664 5662 5660 5658 5656 5654 5651 5649 5645
5567 5572 5579 5585 5589 5594 5601 5608 5616 5623 5630 5638 5644 5651 5656 5661 5665 5668 5671 5672 5673 5675 5674 5674 5672 5671 5668 5666 5665 5663 5663 5662 5661 5660 5658 5656 5654 5652 5650 5648 5646 5643 5640
5553 5558 5564 5569 5575 5580 5586 5593 5601 5609 5618 5626 5633 5641 5646 5651 5656 5660 5663 5665 5666 5668 5668 5668 5666 5665 5664 5661 5659 5656 5654 5654 5654 5653 5652 5650 5648 5647 5645 5642 5640 5637 5634
5540 5544 5550 5555 5561 5567 5573 5580 5588 5597 5606 5615 5623 5631 5637 5642 5647 5651 5655 5658 5661 5663 5664 5663 5661 5659 5657 5654 5650 5645 5643 5645 5645 5646 5646 5644 5643 5641 5639 5637 5634 5631 5628
5528 5532 5537 5544 5551 5557 5563 5571 5580 5587 5596 5606 5614 5621 5628 5633 5639 5643 5647 5652 5656 5657 5657 5658 5658 5654 5651 5652 5649 5642 5636 5634 5637 5640 5639 5639 5637 5636 5634 5631 5629 5626 5623
5518 5522 5528 5535 5542 5548 5555 5561 5569 5574 5584 5592 5602 5611 5620 5625 5631 5636 5641 5646 5649 5652 5653 5655 5655 5654 5649 5646 5648 5645 5637 5635 5632 5632 5633 5633 5632 5630 5628 5626 5623 5620 5618
5511 5515 5520 5526 5533 5540 5547 5552 5559 5565 5574 5586 5595 5603 5611 5618 5623 5629 5634 5639 5643 5647 5649 5650 5651 5652 5649 5644 5642 5643 5643 5642 5634 5627 5626 5626 5626 5625 5623 5621 5618 5615 5612
5504 5508 5514 5520 5527 5534 5539 5545 5551 5558 5567 5577 5585 5594 5602 5609 5615 5622 5628 5633 5638 5641 5644 5645 5646 5647 5646 5644 5642 5638 5636 5636 5634 5630 5624 5620 5619 5619 5618 5616 5613 5610 5606
5497 5502 5509 5516 5521 5526 5532 5539 5545 5552 5559 5567 5577 5585 5593 5601 5608 5615 5621 5627 5633 5637 5640 5641 5642 5642 5642 5640 5639 5637 5637 5635 5631 5627 5622 5617 5614 5613 5612 5610 5608 5604 5601